Leesburg, FL

10:37 AM EST on January 23, 2017 (GMT -0500)
Leesburg Regional

Weather History for KLEE - January, 2012

Change the Weather History Date:

Friday, January 13, 2012

  Actual Average Record
Temperature  
Mean Temperature 55 °F -  
Max Temperature 64 °F 67 °F 83 °F (1963)
Min Temperature 46 °F 44 °F 19 °F (1981)
Degree Days  
Heating Degree Days 10    
Growing Degree Days 5 (Base 50)    
Moisture  
Dew Point 36 °F    
Average Humidity 53    
Maximum Humidity 77    
Minimum Humidity 30    
Precipitation  
Precipitation 0.00 in - - ()
Sea Level Pressure  
Sea Level Pressure 30.14 in    
Wind  
Wind Speed 9 mph (WNW)    
Max Wind Speed 16 mph    
Max Gust Speed 24 mph    
Visibility 10 miles    
Events      
Averages and records for this station are not official NWS values.
T = Trace of Precipitation, MM = Missing Value Source: NWS Daily Summary

Daily Weather History Graph

Daily Weather History Graph

Search for Another Location

Airport or City:

Trip Planner

Search our weather history database for the weather conditions in past years. The results will help you decide how hot, cold, wet, or windy it might be!

Date:

Astronomy

Jan. 13, 2012 Rise Set
Actual Time 7:21 AM EST 5:50 PM EST
Civil Twilight 6:56 AM EST 6:15 PM EST
Nautical Twilight 6:26 AM EST 6:44 PM EST
Astronomical Twilight 5:58 AM EST 7:13 PM EST
Moon 10:32 PM EST (1/13) 10:01 AM EST (1/13)
Length of Visible Light 11h 19m
Length of Day
10h 28m
Waning Gibbous, 79% of the Moon is Illuminated
Jan 13
Waning Gibbous
Jan 16
Last Quarter
Jan 23
New
Jan 30
First Quarter
Feb 7
Full

Hourly Weather History & Observations

Time (EST) Temp. Dew Point Humidity Pressure Visibility Wind Dir Wind Speed Gust Speed Precip Events Conditions
12:27 AM 64.4 °F 57.2 °F 77% 29.97 in 10.0 mi West 11.5 mph - N/A   Mostly Cloudy
12:53 AM 64.0 °F 55.0 °F 73% 29.96 in 10.0 mi WNW 16.1 mph 24.2 mph N/A   Scattered Clouds
1:53 AM 62.1 °F 52.0 °F 70% 29.98 in 10.0 mi WNW 6.9 mph - N/A   Clear
2:53 AM 60.1 °F 51.1 °F 72% 30.00 in 10.0 mi WNW 10.4 mph - N/A   Partly Cloudy
3:53 AM 57.9 °F 48.0 °F 70% 30.02 in 10.0 mi WNW 9.2 mph 18.4 mph N/A   Clear
4:53 AM 55.0 °F 41.0 °F 59% 30.06 in 10.0 mi WNW 8.1 mph 17.3 mph N/A   Clear
5:53 AM 53.1 °F 33.1 °F 47% 30.09 in 10.0 mi NW 6.9 mph - N/A   Clear
6:53 AM 51.1 °F 35.1 °F 54% 30.12 in 10.0 mi NW 8.1 mph - N/A   Clear
7:53 AM 50.0 °F 32.0 °F 50% 30.15 in 10.0 mi NW 8.1 mph - N/A   Clear
8:53 AM 50.0 °F 32.0 °F 50% 30.17 in 10.0 mi NW 8.1 mph - N/A   Clear
9:53 AM 50.0 °F 33.1 °F 52% 30.19 in 10.0 mi NNW 5.8 mph - N/A   Clear
10:53 AM 50.0 °F 33.1 °F 52% 30.20 in 10.0 mi NW 5.8 mph - N/A   Clear
11:53 AM 51.1 °F 32.0 °F 48% 30.19 in 10.0 mi NW 6.9 mph - N/A   Clear
12:53 PM 51.1 °F 30.9 °F 46% 30.17 in 10.0 mi West 3.5 mph - N/A   Clear
1:53 PM 54.0 °F 28.9 °F 38% 30.15 in 10.0 mi WNW 5.8 mph - N/A   Clear
2:53 PM 55.0 °F 24.1 °F 30% 30.14 in 10.0 mi NW 4.6 mph - N/A   Clear
3:53 PM 57.0 °F 26.1 °F 30% 30.16 in 10.0 mi West 6.9 mph - N/A   Clear
4:53 PM 55.0 °F 27.0 °F 34% 30.16 in 10.0 mi SW 4.6 mph - N/A   Clear
5:53 PM 54.0 °F 24.1 °F 31% 30.17 in 10.0 mi West 10.4 mph - N/A   Clear
6:53 PM 50.0 °F 30.0 °F 46% 30.19 in 10.0 mi West 13.8 mph - N/A   Clear
7:53 PM 48.0 °F 32.0 °F 54% 30.21 in 10.0 mi West 8.1 mph - N/A   Clear
8:53 PM 48.0 °F 34.0 °F 58% 30.23 in 10.0 mi WNW 10.4 mph 17.3 mph N/A   Clear
9:53 PM 46.9 °F 34.0 °F 61% 30.25 in 10.0 mi NW 9.2 mph - N/A   Clear
10:53 PM 46.9 °F 33.1 °F 59% 30.26 in 10.0 mi NW 5.8 mph - N/A   Clear
11:53 PM 46.9 °F 32.0 °F 56% 30.25 in 10.0 mi NW 6.9 mph - N/A   Clear